Location: Horowhenua
(40.7500°S, 175.3333°E)
Time: 16:01:59
(UTC+00:00)

SL-24 DEB - Pass Details

Date: 25 September 2023
Orbit: 654 x 688 km, 92.0° (Epoch: 01 December)

Event Time Altitude Azimuth Distance (km) Brightness Sun altitude
Rises 17:15:33 0° 198° (SSW) 3,021 7.5 -9.7°
Reaches altitude 10° 17:19:08 10° 227° (SW) 2,102 6.4 -9.0°
Maximum altitude 17:20:56 12° 250° (WSW) 1,955 6.1 -8.7°
Enters shadow 17:22:34 10° 271° (W) 2,075 6.1 -8.4°
